This is the latest recevied weather packets stored in our database for station/object IZ3LSV-13. If no packets are shown the sender has not sent any weather packets the latest 10 day(s).
| Time | Temp. | Humidity | Pressure | Rain* | Wind** | Luminosity | Snow |
|---|---|---|---|---|---|---|---|
| 1787661376 | 31.11° C | - | 1104.8 hPa | 0 mm | - | - | - |
| 1787661070 | 31.11° C | - | 1104.8 hPa | 0 mm | - | - | - |
| 1787660764 | 31.11° C | - | 1104.9 hPa | 0 mm | - | - | - |
| 1787660459 | 31.11° C | - | 1104.8 hPa | 0 mm | - | - | - |
| 1787660154 | 31.11° C | - | 1104.9 hPa | 0 mm | - | - | - |
| 1787659848 | 31.11° C | - | 1104.9 hPa | 0 mm | - | - | - |
| 1787659543 | 31.67° C | - | 1105 hPa | 0 mm | - | - | - |
| 1787659238 | 31.67° C | - | 1105 hPa | 0 mm | - | - | - |
| 1787658932 | 31.67° C | - | 1105.1 hPa | 0 mm | - | - | - |
| 1787658627 | 31.67° C | - | 1105 hPa | 0 mm | - | - | - |
| 1787658321 | 31.67° C | - | 1105.1 hPa | 0 mm | - | - | - |
| 1787658016 | 31.11° C | - | 1105 hPa | 0 mm | - | - | - |
| 1787657711 | 31.11° C | - | 1105.1 hPa | 0 mm | - | - | - |
| 1787657405 | 30.56° C | - | 1105 hPa | 0 mm | - | - | - |
| 1787657100 | 30.56° C | - | 1105 hPa | 0 mm | - | - | - |
| 1787656794 | 30° C | - | 1105.1 hPa | 0 mm | - | - | - |
| 1787656489 | 29.44° C | - | 1105.2 hPa | 0 mm | - | - | - |
| 1787656183 | 29.44° C | - | 1105.1 hPa | 0 mm | - | - | - |
| 1787655878 | 29.44° C | - | 1105 hPa | 0 mm | - | - | - |
| 1787655573 | 29.44° C | - | 1105 hPa | 0 mm | - | - | - |
| 1787655267 | 29.44° C | - | 1105.2 hPa | 0 mm | - | - | - |
| 1787654962 | 30° C | - | 1105.1 hPa | 0 mm | - | - | - |
| 1787654656 | 29.44° C | - | 1105.3 hPa | 0 mm | - | - | - |
| 1787654350 | 29.44° C | - | 1105.4 hPa | 0 mm | - | - | - |
| 1787654045 | 29.44° C | - | 1105.3 hPa | 0 mm | - | - | - |
* Rain latest hour (hover to see other rain measurements)
** Current wind speed in m/s (hover to see current wind gust speed)